Weather reports worldwide

Advertisment
Faßberg, Germany (10246): temperature & dewpoint: 25.05.2020 00:00:00 - 31.05.2020 00:00:00 (CEST)Faßberg, Germany (10246): wind speed & gusts: 25.05.2020 00:00:00 - 31.05.2020 00:00:00 (CEST)Faßberg, Germany (10246): wind direction: 25.05.2020 00:00:00 - 31.05.2020 00:00:00 (CEST)Faßberg, Germany (10246): reduced air pressure: 25.05.2020 00:00:00 - 31.05.2020 00:00:00 (CEST)Faßberg, Germany (10246): visibility: 25.05.2020 00:00:00 - 31.05.2020 00:00:00 (CEST)
Date & Time tt [°C] td [°C] ff [km/h] ff [kn] fx [km/h] fx [kn] dd ppp [hPa] vv [km]
31.05.2020 00:00:00 11,7 4,0 14 8 - - ENE 1025,0 7
30.05.2020 23:00:00 13,5 4,2 7 4 - - NE 1024,5 9
30.05.2020 22:00:00 15,4 4,5 11 6 - - E 1024,5 8
30.05.2020 21:00:00 16,4 4,1 14 8 - - E 1024,0 7
30.05.2020 20:00:00 17,8 4,0 18 10 - - ENE 1023,9 7
30.05.2020 19:00:00 18,5 3,2 22 12 - - E 1023,7 6
30.05.2020 18:00:00 17,8 3,9 22 12 - - E 1024,0 7
30.05.2020 17:00:00 18,1 3,6 22 12 - - E 1024,3 7
30.05.2020 16:00:00 18,6 3,3 18 10 - - ENE 1024,5 8
30.05.2020 15:00:00 19,2 2,0 18 10 - - E 1024,8 6
30.05.2020 14:00:00 19,8 2,1 22 12 - - NE 1025,4 7
30.05.2020 13:00:00 18,5 1,4 22 12 - - NE 1025,9 7
30.05.2020 12:00:00 17,6 0,9 14 8 - - ENE 1026,6 8
30.05.2020 11:00:00 16,1 1,8 11 6 - - ENE 1027,0 7
30.05.2020 10:00:00 16,1 2,2 11 6 - - ESE 1027,2 7
30.05.2020 09:00:00 14,1 6,0 7 4 - - ESE 1027,4 6
30.05.2020 08:00:00 9,2 6,2 4 2 - - NE 1027,5 6
30.05.2020 07:00:00 6,2 4,4 4 2 - - ENE 1027,7 6
30.05.2020 06:00:00 5,1 3,5 4 2 - - NE 1027,5 6
30.05.2020 05:00:00 5,1 3,5 4 2 - - E 1027,3 6
30.05.2020 04:00:00 6,5 3,9 4 2 - - NNE 1027,4 7
30.05.2020 03:00:00 7,3 4,8 4 2 - - ENE 1027,4 7
30.05.2020 02:00:00 9,0 5,1 4 2 - - NE 1027,4 7
30.05.2020 01:00:00 10,1 5,5 7 4 - - E 1027,3 7
30.05.2020 00:00:00 11,6 5,8 11 6 - - E 1027,1 7
29.05.2020 23:00:00 13,5 5,8 14 8 - - ENE 1026,8 7
29.05.2020 22:00:00 13,9 3,7 14 8 - - ENE 1026,6 8
29.05.2020 21:00:00 17,0 3,1 7 4 - - ENE 1026,2 8
29.05.2020 20:00:00 19,2 1,3 11 6 - - E 1026,3 7
29.05.2020 19:00:00 19,7 1,0 7 4 - - NNE 1026,6 5
29.05.2020 18:00:00 20,5 0,4 7 4 - - SE 1026,8 5
29.05.2020 17:00:00 20,2 1,3 11 6 - - E 1027,2 7
29.05.2020 16:00:00 19,7 0,8 7 4 - - SE 1027,9 5
29.05.2020 15:00:00 19,4 1,7 11 6 - - ESE 1028,5 6
29.05.2020 14:00:00 19,8 1,6 11 6 - - SE 1029,2 5
29.05.2020 13:00:00 19,2 2,0 14 8 - - ESE 1029,6 8
29.05.2020 12:00:00 18,5 2,4 18 10 - - E 1030,2 20
29.05.2020 11:00:00 17,1 0,9 14 8 - - E 1030,8 20
29.05.2020 10:00:00 15,6 2,6 4 2 - - NE 1030,9 20
29.05.2020 09:00:00 14,2 5,3 4 2 - - ESE 1031,2 20
29.05.2020 08:00:00 11,5 6,8 7 4 - - E 1031,4 20
29.05.2020 07:00:00 6,3 4,5 4 2 - - NNE 1031,7 20
29.05.2020 06:00:00 3,2 2,4 4 2 - - S 1031,7 20
29.05.2020 05:00:00 3,5 2,5 4 2 - - SSE 1031,6 20
29.05.2020 04:00:00 4,8 3,8 4 2 - - ENE 1031,6 20
29.05.2020 03:00:00 5,1 3,8 4 2 - - E 1031,6 20
29.05.2020 02:00:00 6,6 5,0 4 2 - - E 1031,5 20
29.05.2020 01:00:00 9,0 6,3 4 2 - - NNW 1031,4 30
29.05.2020 00:00:00 10,7 6,7 4 2 - - NE 1031,2 30
28.05.2020 23:00:00 12,1 5,6 7 4 - - NNE 1031,1 30
28.05.2020 22:00:00 12,2 3,7 11 6 - - N 1030,8 30
28.05.2020 21:00:00 15,4 2,7 7 4 - - ENE 1030,2 30
28.05.2020 20:00:00 17,4 1,6 14 8 - - ENE 1030,2 30
28.05.2020 19:00:00 18,0 2,2 14 8 - - ENE 1030,2 30
28.05.2020 18:00:00 17,7 2,4 14 8 - - ENE 1030,5 30
28.05.2020 17:00:00 18,8 2,5 18 10 - - ENE 1030,8 30
28.05.2020 16:00:00 19,0 1,0 11 6 - - NE 1031,1 30
28.05.2020 15:00:00 17,7 2,3 11 6 - - NNE 1031,5 30
28.05.2020 14:00:00 17,3 2,4 11 6 - - ENE 1031,9 30
28.05.2020 13:00:00 17,4 1,9 14 8 - - NE 1032,1 30
28.05.2020 12:00:00 16,4 1,9 18 10 - - NE 1032,4 30
28.05.2020 11:00:00 15,5 4,2 14 8 - - NNE 1032,7 30
28.05.2020 10:00:00 13,6 4,4 11 6 - - N 1033,0 30
28.05.2020 09:00:00 11,6 4,8 14 8 - - NNE 1033,1 30
28.05.2020 08:00:00 10,0 5,0 22 12 - - N 1033,5 30
28.05.2020 07:00:00 8,5 4,6 14 8 - - N 1033,7 30
28.05.2020 06:00:00 7,1 4,3 7 4 - - N 1033,6 30
28.05.2020 05:00:00 6,6 3,9 7 4 - - N 1033,5 30
28.05.2020 04:00:00 7,5 3,8 11 6 - - NNW 1033,4 30
28.05.2020 03:00:00 8,7 3,7 7 4 - - NNW 1033,2 30
28.05.2020 02:00:00 10,6 3,8 11 6 - - NNE 1033,3 30
28.05.2020 01:00:00 12,2 4,5 11 6 - - N 1033,3 30
28.05.2020 00:00:00 13,7 4,1 11 6 - - NE 1032,7 30
27.05.2020 23:00:00 14,2 6,7 14 8 - - N 1032,4 30
27.05.2020 22:00:00 14,8 7,9 11 6 - - N 1031,7 30
27.05.2020 21:00:00 16,0 8,7 18 10 - - N 1031,0 30
27.05.2020 20:00:00 17,3 9,0 18 10 - - NNE 1030,8 30
27.05.2020 19:00:00 18,9 8,0 22 12 - - N 1030,6 30
27.05.2020 18:00:00 19,8 8,2 22 12 - - N 1030,8 20
27.05.2020 17:00:00 20,5 6,8 11 6 - - NW 1030,8 20
27.05.2020 16:00:00 19,8 7,8 18 10 - - N 1031,4 20
27.05.2020 15:00:00 20,4 5,6 18 10 - - NNW 1031,6 20
27.05.2020 14:00:00 21,0 5,7 14 8 - - WNW 1031,8 20
27.05.2020 13:00:00 20,8 7,0 18 10 - - NNW 1032,3 20
27.05.2020 12:00:00 20,3 5,8 11 6 - - NW 1032,7 20
27.05.2020 11:00:00 19,6 6,8 11 6 - - WNW 1032,9 75
27.05.2020 10:00:00 18,3 7,1 14 8 - - WNW 1033,1 75
27.05.2020 09:00:00 16,2 8,7 11 6 - - NW 1033,5 9
27.05.2020 08:00:00 13,5 9,1 4 2 - - N 1033,7 9
27.05.2020 07:00:00 8,0 6,6 4 2 - - S 1034,1 9
27.05.2020 06:00:00 5,8 4,8 0 0 - - N 1034,3 8
27.05.2020 05:00:00 6,2 5,5 4 2 - - E 1034,2 10
27.05.2020 04:00:00 6,7 5,9 4 2 - - ESE 1034,3 15
27.05.2020 03:00:00 8,2 7,5 4 2 - - E 1034,7 20
27.05.2020 02:00:00 8,3 7,3 7 4 - - SE 1034,9 20
27.05.2020 01:00:00 11,1 9,0 4 2 - - SE 1034,8 20
27.05.2020 00:00:00 12,7 9,9 0 0 - - N 1035,0 20
26.05.2020 23:00:00 12,9 9,7 4 2 - - E 1035,0 20
26.05.2020 22:00:00 15,1 10,1 0 0 - - N 1034,8 25
26.05.2020 21:00:00 17,6 8,7 4 2 - - N 1034,4 25
26.05.2020 20:00:00 18,5 8,3 4 2 - - NNW 1034,3 25
26.05.2020 19:00:00 18,6 7,8 4 2 - - NNE 1034,4 25
26.05.2020 18:00:00 18,8 8,2 7 4 - - ENE 1034,6 25
26.05.2020 17:00:00 19,0 6,8 7 4 - - ENE 1034,7 25
26.05.2020 16:00:00 18,2 8,6 7 4 - - ENE 1035,1 25
26.05.2020 15:00:00 17,8 9,2 11 6 - - WNW 1035,3 25
26.05.2020 14:00:00 17,6 8,1 7 4 - - NNW 1035,5 25
26.05.2020 13:00:00 16,4 8,4 4 2 - - NW 1035,6 20
26.05.2020 12:00:00 15,6 9,5 4 2 - - SW 1036,0 20
26.05.2020 11:00:00 14,5 9,3 7 4 - - W 1036,0 12
26.05.2020 10:00:00 12,5 8,5 4 2 - - WNW 1036,2 12
26.05.2020 09:00:00 10,8 8,0 4 2 - - N 1036,1 10
26.05.2020 08:00:00 9,7 7,7 7 4 - - N 1035,7 8
26.05.2020 07:00:00 8,7 7,4 7 4 - - NW 1035,4 8
26.05.2020 06:00:00 8,2 7,0 4 2 - - NW 1035,4 8
26.05.2020 05:00:00 8,1 6,9 7 4 - - NW 1034,9 10
26.05.2020 04:00:00 7,7 6,7 7 4 - - NW 1034,7 10
26.05.2020 03:00:00 7,1 6,2 0 0 - - N 1034,6 10
26.05.2020 02:00:00 7,4 5,9 4 2 - - NNW 1034,4 10
26.05.2020 01:00:00 8,6 6,5 7 4 - - N 1034,4 15
26.05.2020 00:00:00 9,4 6,8 7 4 - - NW 1034,4 20
25.05.2020 23:00:00 9,3 6,7 11 6 - - W 1034,3 20
25.05.2020 22:00:00 10,3 6,9 14 8 - - NW 1034,0 20
25.05.2020 21:00:00 11,7 7,0 18 10 - - NW 1033,1 20
25.05.2020 20:00:00 12,5 6,9 22 12 - - NNW 1032,7 20
25.05.2020 19:00:00 13,0 6,6 22 12 - - NW 1032,1 20
25.05.2020 18:00:00 12,7 7,0 22 12 - - NNW 1031,8 20
25.05.2020 17:00:00 12,9 6,9 22 12 - - NNW 1031,7 20
25.05.2020 16:00:00 12,8 7,0 18 10 - - NW 1031,5 20
25.05.2020 15:00:00 12,4 7,0 25 14 - - NNW 1031,4 20
25.05.2020 14:00:00 11,8 7,1 25 14 - - NW 1030,9 15
25.05.2020 13:00:00 11,7 6,8 25 14 - - NNW 1030,5 15
25.05.2020 12:00:00 11,3 6,6 25 14 - - NNW 1030,1 15
25.05.2020 11:00:00 10,8 6,4 22 12 - - NNW 1029,9 15
25.05.2020 10:00:00 10,9 5,7 29 16 50 27 NNW 1029,3 15
25.05.2020 09:00:00 10,6 6,0 25 14 - - NNW 1028,9 15
25.05.2020 08:00:00 10,6 6,6 25 14 - - NW 1028,2 15
25.05.2020 07:00:00 10,8 6,0 25 14 - - NNW 1027,7 15
25.05.2020 06:00:00 11,1 7,1 25 14 - - NW 1027,2 9
25.05.2020 05:00:00 11,3 7,4 25 14 - - NW 1026,7 9
25.05.2020 04:00:00 11,4 8,4 22 12 - - WNW 1026,5 9
25.05.2020 03:00:00 11,2 8,6 22 12 - - WNW 1026,6 9
25.05.2020 02:00:00 11,0 8,8 18 10 - - WNW 1026,4 9
25.05.2020 01:00:00 10,5 8,0 18 10 - - W 1026,4 9
25.05.2020 00:00:00 10,7 7,4 11 6 - - W 1026,6 10

tt = temperature
td = dewpoint
ff = wind speed
fx = gusts
dd = wind direction
ppp = reduced air pressure
vv = visibility

Next stations